Altoona, PA

8:52 AM EDT on May 27, 2018 (GMT -0400)
Altoona-Blair County

Weather History for KAOO - October, 2013

Change the Weather History Date:

Sunday, October 27, 2013

  Actual Average Record
Temperature  
Mean Temperature 43 °F 48 °F  
Max Temperature 51 °F 58 °F 81 °F (1984)
Min Temperature 34 °F 38 °F 25 °F (1976)
Degree Days  
Heating Degree Days 22 17  
Month to date heating degree days 286 365  
Since 1 July heating degree days 455 536  
Cooling Degree Days 0 0  
Month to date cooling degree days 32 0  
Year to date cooling degree days 695 522  
Moisture  
Dew Point 31 °F    
Average Humidity 64    
Maximum Humidity 85    
Minimum Humidity 42    
Precipitation  
Precipitation 0.00 in 0.09 in 1.97 in (1981)
Month to date precipitation 3.74 2.24  
Year to date precipitation 24.79 26.62  
Sea Level Pressure  
Sea Level Pressure 30.05 in    
Wind  
Wind Speed 8 mph (West)    
Max Wind Speed 22 mph    
Max Gust Speed 29 mph    
Visibility 10 miles    
Events      
T = Trace of Precipitation, MM = Missing Value Source: NWS Daily Summary

Daily Weather History Graph

Daily Weather History Graph

Search for Another Location

Airport or City:

Astronomy

Oct. 27, 2013 Rise Set
Actual Time 7:37 AM EDT 6:16 PM EDT
Civil Twilight 7:09 AM EDT 6:44 PM EDT
Nautical Twilight 6:37 AM EDT 7:16 PM EDT
Astronomical Twilight 6:05 AM EDT 7:47 PM EDT
Moon 12:32 AM EDT 2:25 PM EDT
Length of Visible Light 11h 34m
Length of Day
10h 38m
Last Quarter, 44% of the Moon is Illuminated
Oct 27
Last Quarter
Nov 3
New
Nov 10
First Quarter
Nov 17
Full
Nov 25
Last Quarter

Hourly Weather History & Observations

Time (EDT) Temp. Windchill Dew Point Humidity Pressure Visibility Wind Dir Wind Speed Gust Speed Precip Events Conditions
12:53 AM 45.0 °F 39.3 °F 30.9 °F 58% 29.95 in 10.0 mi West 11.5 mph 24.2 mph N/A   Mostly Cloudy
1:53 AM 45.0 °F 38.2 °F 32.0 °F 60% 29.95 in 10.0 mi WNW 15.0 mph 20.7 mph N/A   Mostly Cloudy
2:53 AM 44.1 °F 39.0 °F 30.9 °F 60% 29.95 in 10.0 mi WNW 9.2 mph - N/A   Partly Cloudy
3:53 AM 44.1 °F 38.1 °F 32.0 °F 63% 29.96 in 10.0 mi WNW 11.5 mph - N/A   Mostly Cloudy
4:53 AM 42.1 °F 35.7 °F 33.1 °F 70% 29.98 in 10.0 mi WNW 11.5 mph - N/A   Scattered Clouds
5:53 AM 39.9 °F 35.8 °F 33.1 °F 77% 29.99 in 10.0 mi WNW 5.8 mph - N/A   Partly Cloudy
6:48 AM 39.2 °F 37.0 °F 32.0 °F 75% 29.98 in 10.0 mi WSW 3.5 mph - N/A   Mostly Cloudy
6:53 AM 39.0 °F 35.7 °F 32.0 °F 76% 30.00 in 10.0 mi WSW 4.6 mph - N/A   Mostly Cloudy
7:31 AM 37.4 °F 32.1 °F 32.0 °F 81% 29.99 in 10.0 mi West 6.9 mph - N/A   Scattered Clouds
7:53 AM 37.0 °F 33.3 °F 33.1 °F 86% 30.02 in 10.0 mi West 4.6 mph - N/A   Scattered Clouds
8:53 AM 42.1 °F 37.7 °F 34.0 °F 73% 30.05 in 10.0 mi WSW 6.9 mph - N/A   Partly Cloudy
9:53 AM 44.1 °F 39.5 °F 34.0 °F 68% 30.06 in 10.0 mi West 8.1 mph - N/A   Partly Cloudy
10:53 AM 46.0 °F 40.6 °F 33.1 °F 61% 30.06 in 10.0 mi WNW 11.5 mph - N/A   Mostly Cloudy
11:53 AM 46.9 °F - 30.0 °F 52% 30.07 in 10.0 mi WNW 11.5 mph - N/A   Overcast
12:53 PM 46.9 °F - 28.9 °F 50% 30.07 in 10.0 mi West 13.8 mph - N/A   Overcast
1:53 PM 51.1 °F - 30.0 °F 44% 30.05 in 10.0 mi West 16.1 mph 24.2 mph N/A   Mostly Cloudy
2:53 PM 48.0 °F - 28.9 °F 48% 30.06 in 10.0 mi NW 10.4 mph - N/A   Mostly Cloudy
3:53 PM 50.0 °F - 28.9 °F 44% 30.06 in 10.0 mi WNW 13.8 mph - N/A   Partly Cloudy
4:53 PM 48.9 °F - 28.0 °F 44% 30.06 in 10.0 mi NW 11.5 mph - N/A   Clear
5:53 PM 46.9 °F - 28.9 °F 50% 30.08 in 10.0 mi NW 6.9 mph - N/A   Clear
6:53 PM 42.1 °F - 30.0 °F 62% 30.11 in 10.0 mi Calm Calm - N/A   Clear
7:53 PM 39.9 °F 37.8 °F 28.9 °F 65% 30.12 in 10.0 mi NNE 3.5 mph - N/A   Clear
8:53 PM 37.0 °F 33.3 °F 28.9 °F 73% 30.13 in 10.0 mi SSE 4.6 mph - N/A   Clear
9:53 PM 34.0 °F 31.0 °F 28.9 °F 82% 30.14 in 10.0 mi WNW 3.5 mph - N/A   Clear
10:53 PM 37.0 °F 34.5 °F 28.9 °F 73% 30.15 in 10.0 mi SW 3.5 mph - N/A   Clear
11:53 PM 35.1 °F - 28.9 °F 78% 30.15 in 10.0 mi Calm Calm - N/A   Clear